Location: Unspecified
(51.5147°N, 7.4673°E)
Time: 06:29:24
(UTC+01:00)

A-11 Canister half - Pass Details

Date: 22 February 2026
Orbit: 1524 x 1683 km, 47.3° (Epoch: 14 March)

Event Time Altitude Azimuth Distance (km) Brightness Sun altitude
Rises 20:45:19 0° 282° (WNW) 4,688 12.9 -26.5°
Reaches altitude 10° 20:48:28 10° 277° (W) 3,697 12.0 -26.9°
Maximum altitude 20:57:16 50° 206° (SSW) 1,873 9.4 -28.2°
Enters shadow 21:00:12 39° 161° (SSE) 2,161 9.4 -28.7°
